Regional Weather Roundup
Issued by NWS

Home | Current Version | Previous Version | Text Only | Print | Product List | Glossary On
Versions: 1 2 3 4 5 6 7 8 9 10 11 12 13 14 15 16 17 18 19 20 21 22 23 24 25 26 27 28 29 30 31 32 33 34 35 36 37 38 39 40 41 42 43 44 45 46 47 48 49 50
000
ASUS45 KREV 260910
RWRNV
NEVADA REGIONAL WEATHER ROUNDUP
NATIONAL WEATHER SERVICE RENO NV
100 AM PST MON JAN 26 2015

NOTE: "FAIR" INDICATES FEW OR NO CLOUDS BELOW 12,000 FEET WITH NO
SIGNIFICANT WEATHER AND/OR OBSTRUCTIONS TO VISIBILITY.

NVZ001-003-004-261000-
WESTERN NEVADA

CITY           SKY/WX    TMP DP  RH WIND       PRES   REMARKS
RENO           PTCLDY    36  26  67 NW5       30.29F
CARSON CITY    FAIR      28  21  74 W3        30.31F
PYRAMID LAKE     N/A     46 N/A N/A SW3         N/A
FALLON         PTCLDY    29  15  56 SE7       30.29F
LOVELOCK       PTCLDY    24  14  65 SE6       30.29F
HAWTHORNE      CLEAR     36  25  64 CALM      30.31S
$$

NVZ002-CAZ072-073-261000-
NORTHERN AND CENTRAL SIERRA

CITY           SKY/WX    TMP DP  RH WIND       PRES   REMARKS
S. LAKE TAHOE  CLEAR     30  21  69 S3        30.29F
TRUCKEE        CLEAR     27  23  86 CALM      30.30F
SQUAW VLY 8000   N/A     37  21  52 CALM        N/A
SUSANVILLE     CLEAR     32  28  86 W8        30.27F
BLUE CANYON    CLEAR     58  17  20 E5        30.19F
MAMMOTH LAKES  FAIR      36  19  51 W3        30.35F
BRIDGEPORT     FAIR      26  16  65 CALM      30.32F
$$

NVZ030-031-036-261000-
NORTHERN NEVADA

CITY           SKY/WX    TMP DP  RH WIND       PRES   REMARKS
ELKO           CLEAR     29  26  89 E5        30.40S
WINNEMUCCA     CLEAR     33  27  78 E8        30.31S
WENDOVER       CLEAR     28  23  80 CALM      30.40F
$$

NVZ035-037-261000-
CENTRAL NEVADA

CITY           SKY/WX    TMP DP  RH WIND       PRES   REMARKS
ELY            CLEAR     27  23  85 S9        30.41F
EUREKA           N/A     27  24  89 S5        30.38F
$$

NVZ013-014-261000-
SOUTH CENTRAL NEVADA

CITY           SKY/WX    TMP DP  RH WIND       PRES   REMARKS
TONOPAH        PTCLDY    37  21  52 N12       30.31F
$$

NVZ017-020-022-261000-
SOUTHERN NEVADA

CITY           SKY/WX    TMP DP  RH WIND       PRES   REMARKS
LAS VEGAS      MOCLDY    54  33  45 SW8       30.14S
N. LAS VEGAS   PTCLDY    51  30  44 W3        30.17S
NELLIS AFB     PTCLDY    53  33  47 CALM      30.17S
HENDERSON      PTCLDY    50  33  52 E3        30.19F
MERCURY        PTCLDY    54  28  36 NE8       30.18F
$$



USA.gov is the U.S. government's official web portal to all federal, state and local government web resources and services.